Weather History for Williston, ND

Change the Weather History Date:

Sunday, October 13, 2013

  Actual Average Record
Temperature  
Mean Temperature 41 °F 44 °F  
Max Temperature 57 °F 58 °F 84 °F (1964)
Min Temperature 24 °F 31 °F 6 °F (1909)
Degree Days  
Heating Degree Days 24 20  
Month to date heating degree days 234 233  
Since 1 July heating degree days 420 579  
Cooling Degree Days 0 0  
Month to date cooling degree days 0 0  
Year to date cooling degree days 405 455  
Moisture  
Dew Point 28 °F    
Average Humidity 62    
Maximum Humidity 92    
Minimum Humidity 32    
Precipitation  
Precipitation 0.00 in 0.03 in 0.68 in (1975)
Month to date precipitation 1.87 0.41  
Year to date precipitation 19.66 12.59  
Snow  
Snow 0.00 in 0.10 in 1.00 in (1899)
Month to date snowfall 0.0 0.7  
Since 1 July snowfall 0.0 0.9  
Since 1 September snowfall 0.0 0.9  
Snow Depth 0.00 in    
Sea Level Pressure  
Sea Level Pressure 30.33 in    
Wind  
Wind Speed 4 mph (NE)    
Max Wind Speed 13 mph    
Max Gust Speed 16 mph    
Visibility 9 miles    
Events      
T = Trace of Precipitation, MM = Missing Value Source: NWS Daily Summary

Daily Weather History Graph

Daily Weather History Graph

Search for Another Location

Airport:

Trip Planner

Search our weather history database for the weather conditions in past years. The results will help you decide how hot, cold, wet, or windy it might be!

Date:

Astronomy

Oct. 13, 2013 Rise Set
Actual Time 8:11 AM CDT 7:08 PM CDT
Civil Twilight 7:40 AM CDT 7:40 PM CDT
Nautical Twilight 7:04 AM CDT 8:16 PM CDT
Astronomical Twilight 6:27 AM CDT 8:52 PM CDT
Moon 4:23 PM CDT (10/13) 1:59 AM CDT (10/13)
Length of Visible Light 12h 00m
Length of Day
10h 57m
Waxing Gibbous, 69% of the Moon is Illuminated
Oct 13
Waxing Gibbous
Oct 18
Full
Oct 26
Last Quarter
Nov 3
New
Nov 9
First Quarter

Hourly Weather History & Observations

Time (CDT) Temp. Windchill Dew Point Humidity Pressure Visibility Wind Dir Wind Speed Gust Speed Precip Events Conditions
12:52 AM 32.0 °F - 28.0 °F 85% 30.29 in 9.0 mi Calm Calm - N/A   Clear
1:52 AM 30.0 °F - 27.0 °F 88% 30.30 in 8.0 mi Calm Calm - N/A   Clear
2:52 AM 30.0 °F - 27.0 °F 88% 30.31 in 10.0 mi Calm Calm - N/A   Clear
3:52 AM 28.9 °F - 26.1 °F 89% 30.32 in 10.0 mi Calm Calm - N/A   Clear
4:52 AM 27.0 °F - 23.0 °F 85% 30.32 in 9.0 mi Calm Calm - N/A   Clear
5:52 AM 26.1 °F - 23.0 °F 88% 30.33 in 6.0 mi Calm Calm - N/A   Clear
6:52 AM 24.1 °F - 21.0 °F 88% 30.35 in 5.0 mi Calm Calm - N/A   Clear
7:52 AM 24.1 °F - 21.9 °F 91% 30.38 in 6.0 mi Calm Calm - N/A   Clear
8:52 AM 28.9 °F - 25.0 °F 85% 30.38 in 10.0 mi Calm Calm - N/A   Clear
9:52 AM 33.1 °F 30.0 °F 28.9 °F 85% 30.38 in 10.0 mi East 3.5 mph - N/A   Clear
10:52 AM 39.9 °F 37.8 °F 33.1 °F 77% 30.39 in 10.0 mi NE 3.5 mph - N/A   Clear
11:52 AM 46.9 °F - 33.1 °F 59% 30.37 in 10.0 mi NNE 3.5 mph - N/A   Clear
12:52 PM 52.0 °F - 33.1 °F 49% 30.36 in 10.0 mi Calm Calm - N/A   Clear
1:52 PM 54.0 °F - 26.1 °F 34% 30.34 in 10.0 mi Variable 3.5 mph - N/A   Clear
2:52 PM 55.0 °F - 26.1 °F 33% 30.31 in 10.0 mi ESE 5.8 mph - N/A   Clear
3:52 PM 55.9 °F - 26.1 °F 32% 30.29 in 10.0 mi East 6.9 mph - N/A   Clear
4:52 PM 54.0 °F - 26.1 °F 34% 30.29 in 10.0 mi East 9.2 mph - N/A   Clear
5:52 PM 53.1 °F - 26.1 °F 35% 30.29 in 10.0 mi ENE 10.4 mph - N/A   Clear
6:52 PM 48.9 °F - 28.0 °F 44% 30.30 in 10.0 mi ENE 6.9 mph - N/A   Clear
7:52 PM 45.0 °F 41.8 °F 28.9 °F 53% 30.32 in 10.0 mi NNE 5.8 mph - N/A   Clear
8:52 PM 44.1 °F 40.1 °F 30.0 °F 58% 30.33 in 10.0 mi NNE 6.9 mph - N/A   Clear
9:52 PM 42.1 °F 36.6 °F 30.9 °F 65% 30.33 in 10.0 mi North 9.2 mph - N/A   Clear
10:52 PM 42.1 °F 37.7 °F 30.9 °F 65% 30.33 in 10.0 mi NNE 6.9 mph - N/A   Overcast
11:52 PM 42.1 °F 37.1 °F 32.0 °F 67% 30.32 in 10.0 mi NNE 8.1 mph - N/A   Overcast